Regional Weather Roundup
Issued by NWS Charleston, SC

Current Version | Previous Version | Graphics & Text | Print | Product List | Glossary On
Versions: 1 2 3 4 5 6 7 8 9 10 11 12 13 14 15 16 17 18 19 20 21 22 23 24 25 26 27 28 29 30 31 32 33 34 35 36 37 38 39 40 41 42 43 44 45 46 47 48 49 50
000
ASUS42 KCHS 310527
RWRCHS

REGIONAL WEATHER ROUNDUP
NATIONAL WEATHER SERVICE CHARLESTON SC
100 AM EDT FRI JUL 31 2015

NOTE: "FAIR" INDICATES FEW OR NO CLOUDS BELOW 12,000 FEET WITH NO
SIGNIFICANT WEATHER AND/OR OBSTRUCTIONS TO VISIBILITY.

NOT ALL STATIONS ARE QUALITY CONTROLLED BY THE NATIONAL
WEATHER SERVICE. USE DATA WITH CAUTION...ESPECIALLY
DEWPOINT OBSERVATIONS.

SCZ027-030-031-034>040-042>050-310600-
...SOUTHEAST SOUTH CAROLINA...

CITY           SKY/WX    TMP DP  RH WIND       PRES   REMARKS
N CHARLESTON   MOCLDY    81  73  76 SW6       29.92R
WATERFRONT PRK   N/A     84  77  79 VRB3      29.89F HX  94
MOUNT PLEASANT   N/A     77  77 100 CALM      29.91F FOG
JOHNS ISLAND   FAIR      82  75  78 SW7       29.91F
PINOPOLIS      NOT AVBL
MONCKS CORNER  FAIR      79  75  89 CALM      29.91F
SUMMERVILLE    NOT AVBL
BEAUFORT MCAS  CLOUDY    83  75  77 S6        29.93S HX  90
BEAUFORT ARPT  CLOUDY    79  73  83 S7        29.92F
HILTON HEAD IS HVY RAIN  77  75  94 S12       29.95F
WALTERBORO     PTCLDY    81  75  83 SW7       29.92F
ALLENDALE      FAIR      79  77  94 CALM      29.91S

...SOUTHERN MIDLANDS AND PEE DEE...

CITY           SKY/WX    TMP DP  RH WIND       PRES   REMARKS
GEORGETOWN     NOT AVBL
KINGSTREE      NOT AVBL
ORANGEBURG     CLOUDY    79  73  82 CALM      29.92F
BARNWELL       FAIR      81  79  94 CALM      29.92F
AIKEN          FAIR      77  72  83 S5        29.95F
MANNING        FAIR      79  72  78 CALM      29.91F
COLUMBIA       PTCLDY    82  73  74 S5        29.90F
SUMTER         CLOUDY    79  73  82 SW3       29.90S
FLORENCE       MOCLDY    82  75  79 S3        29.90F
MYRTLE BEACH   PTCLDY    81  72  74 W6        29.92F
N MYRTLE BEACH PTCLDY    79  76  90 CALM      29.90F

$$

GAZ063-065-086>088-099>101-113>116-118-119-134>141-150-310600-
...SOUTHEAST GEORGIA...

CITY           SKY/WX    TMP DP  RH WIND       PRES   REMARKS
SAVANNAH ARPT  MOCLDY    80  75  84 SW5       29.93S
HUNTER AAF     LGT RAIN  82  77  83 SW8       29.90F HX  91
FORT STEWART   MOCLDY    82  73  74 SW6       29.91F
STATESBORO     MOCLDY    78  78 100 CALM      29.92F
SYLVANIA       MOCLDY    82  76  83 CALM      29.92F
CLAXTON        FAIR      81  77  89 CALM      29.92F

...CSRA...CENTRAL AND FAR SOUTHEAST GEORGIA...

CITY           SKY/WX    TMP DP  RH WIND       PRES   REMARKS
THOMSON        CLEAR     79  77  94 CALM      29.96F
AUGUSTA-BUSH   CLEAR     78  75  90 S6        29.91S
AUGUSTA-DANIEL CLEAR     81  75  82 CALM      29.93S
SWAINSBORO     FAIR      82  81  94 SW5       29.93F HX  95
VIDALIA        HAZE      81  75  83 SW3       29.94S VSB 1/4
EASTMAN        FAIR      77  77 100 CALM      29.95F
HAZLEHURST     FAIR      80  78  95 S3        29.92F
ALMA           CLEAR     78  75  90 S5        29.94F
WAYCROSS       PTCLDY    81  80  98 SW6       29.94F HX  91
JESUP          FAIR      81  77  89 SW3       29.94F
BAXLEY         FAIR      79  77  94 S5        29.93F
BRUNSWICK      PTCLDY    81  75  83 SW6       29.94F
SAINT SIMONS   PTCLDY    81  75  82 SW9       29.93F

$$

SCZ027-028-034-036>038-045-046-048>050-GAZ119-141-310600-
...LAKE AND SUPPLEMENTAL COASTAL OBSERVATIONS...

STATION/POSITION TIME  TEMP    WIND        PRES    WAVE   SWELL
                       AIR SEA DIR/SP/G            HT/PER HT/PER/DIR
                 (UTC) (F)     (DEG/KT/KT) (MB)    (FT/S) (FT/S/D)
UPR LAKE MARION  NOT AVBL
WINYAH BAY       0445   80     240/  3     1012.0S
LAKE MURRAY      0400   85     240/  3/  4 1012.2S
ACE BASIN NERRS  NOT AVBL
FORT PULASKI     0500   79 87  140/  3/  6 1014.0F
SAPELO ISLAND    0500   82     220/  6     1014.0S

$$

ANZ835-935-AMZ111-154-330-350-352-354-370-450-454-472-310600-
...C-MAN AND BUOY OBSERVATIONS...

STATION/POSITION TIME  TEMP    WIND        PRES    WAVE   SWELL
                       AIR SEA DIR/SP/G            HT/PER HT/PER/DIR
                 (UTC) (F)     (DEG/KT/KT) (MB)    (FT/S) (FT/S/D)
BUOY 41004       0450   81 85  290/ 16/ 17 1012.7S   3/ 8   2/ 8
BUOY 41008       0450   83 83  230/ 12/ 14 1013.6F   2/ 3   2/ 90/ 8
FOLLY BEACH CMAN 0500   83     240/  8/ 11 1013.0F
CAPERS NEARSHORE 0408   84     220/ 10/ 12 1013.4S
FRIPP NEARSHORE  0400   80     210/ 21/ 25 1012.9F


STATION/POSITION TIME  TEMP    WIND        PRES    WAVE   SWELL
                       AIR SEA DIR/SP/G            HT/PER HT/PER/DIR
                 (UTC) (F)     (DEG/KT/KT) (MB)    (FT/S) (FT/S/D)
5E ST. MARYS GA  0421      85                N/A     2/ 3
FRYING PAN BUOY  0450   84 84  280/ 10/ 12 1012.5F   4/ 8   3/130/ 8
BUOY 41025       0450   83 86  170/ 14/ 17 1012.5F   5/ 8   3/170/ 8
CAPE LOOKOUT NC  0500   82     200/  1/  2 1011.9S
BUOY 41002       0450   80 81  210/ 19/ 23 1014.0R  11/10   7/210/10
BUOY 41010       0420   82 84  230/ 19/ 21 1015.3F
ST AUGUSTINE FL  0500   77 82  240/  6/  8 1015.4F


$$



USA.gov is the U.S. government's official web portal to all federal, state and local government web resources and services.